Location: Port-Aux-Quilles Astronomical Observatory
(47.9769°N, 69.9642°W)
Time: 14:08:05
(UTC-04:00)

X-37B - Visible Passes

Search period start: 21 September 2020 00:00
Search period end: 01 October 2020 00:00
Orbit: 386 x 387 km, 45.0° (Epoch: 18 September)

Date Brightness Start Highest point End Pass type
(mag) Time Alt. Az. Time Alt. Az. Time Alt. Az.
21 Sep 2.1 04:18:53 29° SE 04:18:53 29° SE 04:20:47 10° ESE visible
21 Sep 2.2 05:51:27 10° WSW 05:53:55 21° SSW 05:56:24 10° SSE visible
22 Sep 1.6 04:55:29 29° SSW 04:55:31 29° SSW 04:58:20 10° SE visible
23 Sep 3.6 03:59:54 11° SE 03:59:54 11° SE 04:00:03 10° ESE visible
23 Sep 2.6 05:32:12 13° SW 05:33:09 14° SSW 05:34:55 10° S visible
24 Sep 3.1 04:36:46 13° SSE 04:36:46 13° SSE 04:37:17 10° SSE visible
